Погода в Искье

Италия     40°43′49″N   13°57′10″E
темп.,
°C
ветер,
м/с
пор.,
м/с
влажн.,
%
обл.,
%
осадки,
мм/ч
давл.,
гПа
погр.,
м
19 сентября, вс
вс1923:00+24зюз1172100 0.0 101466
02:00+24зсз33720 0.0 1014247
05:00+24с33730 0.0 1013420
08:00+24зюз22735 0.0 1014317
11:00+24з23720 0.0 1015417
14:00+24зсз44740 0.0 1014431
17:00+24з56740 0.0 1013517
20:00+24з56770 0.0 1014461
20 сентября, пн
пн2023:00+24зсз56760 0.0 1015697
02:00+24зсз67745 0.7 1015793
05:00+23зсз77647 0.0 10151059
08:00+23зсз56640 0.0 10151100
11:00+23з56652 0.0 10161162
14:00+23з5666100 0.0 10161109
17:00+23з5566100 0.0 10161105
20:00+23з4564100 0.0 10171114
21 сентября, вт
вт2123:00+23зсз4566100 0.0 1018930
02:00+23зсз5667100 0.1 10181101
05:00+23с5667100 0.1 1017820
08:00+22с11650 0.1 1019301
11:00+22ссз22610 0.0 1020313
14:00+23зсз44647 0.0 1020389
17:00+23з557257 0.0 1019469
20:00+23зсз557087 0.0 1020627
22 сентября, ср
ср2223:00+23ссз446892 0.0 1020532
02:00+23св656396 0.0 1020418
05:00+22св43641 0.0 1019349
08:00+21ссв44610 0.0 1020294
11:00+22св11490 0.0 1019315
14:00+23з33486 0.0 1019294
17:00+23зсз665912 0.0 1017322
20:00+23с665919 0.0 1018702
23 сентября, чт
чт2323:00+22св984789 0.0 1018531
02:00+21св77495 0.0 1018533
05:00+21св88555 0.0 1018540
08:00+20св77570 0.0 1018530
11:00+21всв55480 0.0 1019696
14:00+23з22400 0.0 1018303
17:00+23з55510 0.0 1017343
20:00+22зсз55590 0.0 1017485